Lapse_Rate
0.3 1.2 3.0 5.6 6.5 6.5 6.5 6.5 6.5 6.5 6.5 7.1 6.9 7.0 6.6 7.0 6.5 6.5 4.9 5.3 6.6 7.0 7.8 8.4 8.3 8.7 8.7 8.6 8.5 8.7 8.6 8.8 8.6 9.2 9.0 7.9 6.9 5.5 5.2 5.5 5.9 6.1 7.1 7.4 7.6 7.6 6.6 5.1 3.6
1.0 3.0 5.2 6.7 6.5 6.5 6.5 6.5 6.5 6.5 6.9 6.8 6.7 6.9 6.9 6.5 5.4 4.4 5.4 5.6 6.8 6.9 7.9 8.2 8.4 8.7 8.8 8.7 8.8 9.0 8.9 8.9 9.3 8.5 7.2 6.2 5.6 5.1 5.5 5.4 6.2 6.4 6.1 6.4 6.7 6.2 4.7 3.5 3.2
2.7 4.4 7.4 6.5 6.5 6.5 6.5 6.5 6.5 6.8 7.1 7.1 7.0 6.6 7.3 7.0 4.9 5.5 5.2 6.1 6.7 7.2 8.7 8.7 8.5 8.6 8.8 8.7 8.5 8.7 9.2 8.8 7.6 6.7 5.9 5.7 5.4 5.3 5.6 5.8 5.3 6.8 6.7 6.9 6.0 5.1 3.7 3.6 3.2
4.9 6.4 7.3 6.5 6.5 6.5 6.5 6.5 6.7 6.7 7.2 7.3 7.1 6.5 6.7 5.6 5.4 5.4 5.2 6.1 7.1 7.3 8.2 8.2 8.5 8.6 9.0 8.3 9.4 9.3 8.0 6.1 5.7 5.5 5.7 5.9 5.4 5.6 7.5 6.9 6.3 7.3 6.6 6.4 6.6 5.1 4.8 4.8 4.5
5.2 6.6 6.5 6.5 6.5 6.5 6.5 6.9 7.0 6.5 6.8 7.1 7.0 6.7 7.1 5.2 5.0 4.8 5.4 6.5 6.7 7.6 8.1 8.6 8.6 7.5 8.0 9.0 8.3 8.3 6.5 5.8 5.5 5.5 5.9 6.0 6.1 6.1 7.2 7.6 7.9 7.9 7.2 6.9 8.2 6.6 7.3 7.0 7.0
7.1 7.0 6.5 6.5 6.5 6.5 6.6 7.2 7.0 6.8 7.0 7.1 6.9 7.1 7.2 4.8 4.5 5.1 5.7 6.3 6.6 6.8 7.9 9.0 8.2 7.1 7.1 7.3 6.6 6.9 6.7 6.6 6.3 6.1 6.8 7.2 6.9 7.0 8.2 7.6 8.5 9.3 8.7 8.8 9.2 8.8 7.4 5.4 4.9
6.7 6.5 6.5 6.5 6.5 6.5 6.5 6.0 6.7 6.7 6.8 6.9 7.0 6.5 6.4 5.3 5.3 5.0 5.6 6.0 6.1 6.3 7.1 7.7 7.5 6.4 6.2 6.2 6.4 6.5 6.5 6.5 6.4 6.4 6.4 6.6 6.6 6.8 7.1 7.1 7.8 8.6 8.7 8.6 9.0 7.7 5.2 5.1 5.2
6.6 6.5 6.5 6.5 6.5 6.5 6.7 7.0 6.8 7.0 6.7 5.0 6.1 6.6 6.9 5.6 5.0 5.1 5.8 5.6 6.0 6.1 6.4 6.0 6.2 6.2 6.4 6.6 6.3 6.2 6.4 6.3 6.3 6.2 6.1 6.1 5.8 5.8 6.2 6.0 6.3 6.6 7.1 8.1 8.7 6.9 5.6 4.9 4.9
4.9 6.5 6.5 6.5 6.5 6.5 7.0 6.6 6.3 5.2 6.7 6.4 5.6 5.8 4.5 3.4 4.7 5.6 5.7 6.1 6.1 6.1 5.9 5.2 5.5 5.6 5.6 6.0 6.5 6.4 6.3 6.4 6.2 6.1 5.5 4.6 5.4 5.6 6.0 6.0 5.8 6.0 6.1 7.1 6.6 6.2 5.7 4.4 4.2
6.7 6.5 6.5 6.5 6.5 6.5 6.8 6.8 7.0 6.9 6.9 7.0 6.0 3.4 3.0 2.9 5.2 6.1 6.5 6.4 6.4 5.9 5.5 5.8 5.5 5.3 5.1 5.8 5.0 5.7 6.2 6.8 6.4 5.9 5.3 5.1 4.9 5.4 6.0 5.8 5.2 5.5 6.0 6.3 6.1 5.4 4.7 4.7 5.4
6.9 6.5 6.5 6.7 7.0 7.0 6.8 6.8 7.2 6.8 6.5 7.1 7.1 4.6 3.7 4.0 6.7 6.8 7.0 5.9 5.7 5.9 6.1 5.8 5.0 4.6 4.9 5.3 5.3 5.7 5.8 5.6 5.4 4.9 4.6 4.5 4.8 4.8 5.4 5.8 5.7 5.6 4.9 5.9 5.6 5.8 5.9 5.1 5.3
6.5 6.8 6.8 6.9 6.7 7.0 6.5 7.2 6.7 7.0 7.1 4.6 5.0 2.4 3.7 5.7 7.4 7.2 6.4 5.8 5.6 5.7 5.8 5.4 5.1 4.2 4.2 5.2 5.5 5.6 5.5 5.3 5.5 5.1 4.2 4.8 5.3 5.4 5.5 6.2 5.9 5.7 6.0 6.1 5.8 6.1 5.6 5.4 5.1
6.5 6.5 6.9 6.9 6.7 6.8 6.7 6.8 6.7 7.0 5.4 3.5 2.9 3.1 4.3 7.3 8.0 6.5 5.9 5.8 6.3 5.7 5.3 5.3 4.4 4.4 4.3 4.1 4.8 4.9 5.0 5.4 5.2 4.6 4.2 4.6 5.5 5.9 6.0 6.2 6.3 6.5 6.2 6.5 6.7 6.6 6.4 6.0 5.8
6.8 6.8 6.8 6.9 7.0 7.0 6.6 6.8 7.0 7.2 6.9 5.4 6.0 7.4 7.7 8.0 7.6 6.3 5.5 5.6 5.3 5.7 5.2 4.7 4.6 4.1 4.2 5.0 4.8 5.4 5.0 5.2 4.9 5.2 5.3 4.3 5.2 5.7 6.2 6.5 6.7 6.6 6.5 6.8 6.8 7.1 7.1 6.9 6.3
6.9 6.5 6.5 6.7 6.9 6.6 6.8 6.5 6.5 7.4 7.0 7.1 7.4 7.8 8.1 8.2 7.6 5.5 5.6 5.2 5.4 5.5 5.4 4.5 4.5 3.8 4.5 4.9 5.0 5.2 5.5 5.4 5.7 5.7 4.8 4.7 4.6 5.2 5.8 6.8 7.1 7.3 6.6 6.2 6.2 6.4 6.7 7.1 6.8
6.5 6.5 6.5 6.5 6.7 6.6 6.7 6.5 6.5 7.6 7.4 7.2 7.5 7.7 7.9 8.1 6.2 6.2 5.8 5.6 5.6 5.9 5.3 5.0 5.4 4.5 4.7 4.8 5.1 5.3 5.4 5.3 5.5 5.3 5.2 4.8 4.9 4.9 5.6 6.4 6.8 7.1 6.7 7.1 7.3 7.9 8.0 8.0 8.1
6.5 6.5 6.5 6.5 6.7 6.5 6.5 6.5 6.7 7.6 7.4 7.2 7.4 7.7 7.8 7.9 6.1 6.0 5.6 5.8 5.9 5.8 5.0 4.6 4.6 5.1 5.0 4.8 5.1 4.9 4.7 5.7 5.8 5.2 5.5 5.3 4.9 4.9 5.3 6.4 6.7 6.4 7.0 7.2 7.9 8.1 8.1 8.7 8.6
6.5 6.5 6.5 6.5 6.5 6.5 6.5 6.5 6.5 7.4 7.3 7.2 7.4 7.7 7.8 7.8 6.8 6.5 5.7 5.8 5.9 5.6 5.2 5.4 5.3 5.1 5.1 4.9 4.6 5.2 5.7 5.9 5.4 5.9 5.7 5.3 5.8 5.4 5.6 6.3 6.3 6.6 7.4 7.8 7.8 7.8 8.4 8.9 9.5
6.5 6.5 6.5 6.5 6.5 6.5 6.5 6.5 6.5 7.0 7.2 7.1 7.3 7.5 7.7 7.8 8.0 6.2 5.9 5.2 4.7 5.0 5.1 5.5 5.2 4.8 5.4 5.9 6.2 6.9 7.3 7.1 6.8 6.3 6.2 6.4 6.6 6.2 6.5 7.5 7.5 7.2 7.7 8.1 8.3 8.4 8.1 9.2 8.5
6.5 6.5 6.5 6.5 6.5 6.5 6.5 6.5 6.5 6.7 7.0 7.3 7.3 7.4 7.6 7.8 7.2 5.9 5.2 5.1 4.2 4.8 5.1 5.3 5.7 5.3 5.5 5.6 5.9 6.0 6.2 6.2 6.1 6.1 5.9 6.1 6.7 6.9 7.4 7.6 8.5 8.5 8.7 8.3 8.3 8.0 8.9 8.8 9.6
6.5 6.5 6.5 6.5 6.5 6.5 6.5 6.5 6.5 6.6 7.1 7.5 7.6 7.7 7.2 7.3 6.7 5.5 5.0 3.4 3.7 4.9 5.1 5.7 5.7 5.3 5.2 5.1 5.7 6.0 6.0 6.1 6.3 7.1 7.3 7.3 6.7 6.8 6.8 7.1 7.6 8.3 8.7 8.8 8.6 8.3 8.2 8.9 9.5
6.5 6.5 6.5 6.5 6.5 6.5 6.5 6.5 6.5 6.5 6.5 6.7 7.3 7.6 7.7 7.3 6.0 5.3 4.4 4.1 4.4 5.0 5.5 5.6 5.1 5.7 5.7 5.2 5.8 6.1 6.9 6.9 7.5 7.5 7.4 7.2 6.3 6.6 6.8 7.1 7.6 8.1 8.7 8.5 9.0 9.1 8.6 8.3 8.9
6.5 6.5 6.5 6.5 6.5 6.5 6.5 6.5 6.5 6.5 6.5 6.5 7.0 7.5 7.6 7.4 6.8 5.3 4.6 4.8 5.0 5.6 5.7 5.3 5.4 5.8 5.5 5.7 6.1 6.5 6.6 7.5 7.7 7.3 7.0 7.2 7.4 7.0 7.2 7.3 7.6 8.0 8.4 8.4 8.3 8.6 8.2 8.9 8.5
6.5 6.5 6.5 6.5 6.5 6.5 6.5 6.5 6.5 6.5 6.5 6.5 7.0 7.4 7.6 7.8 6.3 5.9 5.1 6.2 6.0 5.4 5.2 5.4 5.5 6.4 6.6 6.5 6.5 6.5 7.0 7.3 7.6 7.8 8.3 8.4 8.3 8.0 7.7 7.5 7.7 7.9 8.1 8.0 8.1 8.0 8.3 8.0 7.8
6.5 6.5 6.5 6.5 6.5 6.5 6.5 6.5 6.5 6.5 6.5 6.6 6.7 7.3 7.6 7.3 7.5 7.3 7.2 6.5 6.0 6.0 5.9 6.2 6.7 6.8 7.1 7.0 7.1 7.3 7.2 7.2 7.4 7.7 7.8 7.8 8.1 8.1 8.0 7.6 7.7 7.9 7.7 7.5 7.6 7.4 7.4 7.3 7.5
6.5 6.5 6.5 6.5 6.5 6.5 6.5 6.5 6.5 6.5 7.0 7.2 7.4 7.5 7.7 7.3 7.0 6.3 5.7 6.1 6.4 6.2 6.4 6.6 6.9 6.9 7.3 7.4 7.3 7.2 7.0 7.4 7.4 7.3 7.7 7.6 7.9 8.1 7.9 7.9 7.8 7.6 7.6 7.4 7.5 8.4 8.3 7.7 7.4
6.5 6.5 6.5 6.5 6.5 6.5 6.5 6.5 6.5 6.5 6.5 6.9 7.1 7.4 7.5 7.3 6.5 6.3 6.2 6.0 6.3 6.5 6.4 6.0 6.4 7.0 7.1 6.8 6.5 6.2 6.4 6.4 6.5 6.1 6.3 7.0 7.1 7.7 8.0 7.6 7.6 7.3 8.2 7.9 7.3 6.6 6.4 6.6 7.0
6.5 6.5 6.5 6.5 6.5 6.5 6.5 6.5 6.5 6.5 6.5 6.5 6.7 7.1 7.3 6.6 6.5 6.5 6.6 6.4 6.5 6.2 6.1 6.5 6.4 6.6 6.6 6.4 6.2 5.9 5.6 5.7 5.6 5.5 5.8 6.6 7.1 7.4 7.3 6.9 6.3 6.7 6.4 5.8 5.5 5.7 5.5 5.3 5.4
6.5 6.5 6.5 6.5 6.5 6.5 6.5 6.5 6.5 6.5 6.5 6.5 6.9 7.2 7.3 6.8 6.7 6.7 6.5 6.4 6.4 6.8 6.7 6.2 6.6 6.6 6.0 5.7 5.4 5.4 5.6 5.4 5.4 6.0 6.9 7.5 7.3 8.3 6.6 5.8 5.8 5.7 5.6 5.7 5.9 5.8 5.9 6.0 6.3
6.5 6.5 6.5 6.5 6.5 6.5 6.5 6.5 6.5 6.5 6.8 7.0 7.1 7.2 6.6 6.5 6.6 6.4 6.2 6.5 7.0 6.8 6.9 6.9 6.1 5.9 5.8 5.6 5.1 5.2 5.4 5.2 6.1 7.1 7.2 6.5 6.4 6.0 6.6 6.5 6.2 6.1 6.3 6.5 6.5 6.6 6.5 6.6 7.1
Wind_Speed
14 10 3 1 2 1 2 1 2 3 2 1 2 3 2 3 0 1 8 4 17 17 15 19 19 16 16 15 14 14 14 12 10 10 10 9 9 9 9 9 10 10 9 9 10 10 10 10 10
11 4 1 1 1 1 0 2 4 4 3 9 5 3 2 3 3 8 12 11 23 19 17 18 19 18 16 15 14 12 12 11 10 10 9 8 8 8 9 8 9 9 8 9 9 9 10 9 9
6 1 1 2 2 2 3 5 1 1 10 4 4 3 2 4 3 13 5 18 20 18 20 18 19 17 16 14 14 12 12 10 10 9 7 7 7 9 7 8 8 8 8 8 8 8 9 9 9
3 2 3 2 5 4 5 6 1 5 4 4 3 5 4 4 9 7 17 22 17 18 19 20 18 17 16 14 12 12 11 10 8 7 6 7 7 4 5 8 6 7 8 7 7 8 6 8 8
2 1 1 1 3 4 6 6 5 7 3 4 4 5 3 3 8 17 20 17 17 16 16 19 18 16 15 14 12 12 12 9 8 7 6 6 6 6 2 6 3 6 5 5 5 5 6 8 11
2 1 1 3 3 4 7 8 4 6 3 5 5 9 5 5 14 17 18 17 19 15 17 18 17 16 14 14 13 12 11 10 8 8 8 8 6 5 6 4 3 2 4 3 5 8 10 9 9
2 2 3 3 5 6 4 4 4 6 8 7 9 8 3 10 14 17 17 15 16 16 17 17 16 15 14 13 13 13 11 10 9 8 8 8 7 7 5 5 5 6 5 3 6 5 6 7 8
2 1 2 3 3 8 4 5 2 9 4 5 6 6 6 14 18 16 16 14 13 12 13 12 15 14 12 13 13 12 11 11 11 8 7 7 6 5 4 3 4 4 4 3 5 5 4 6 8
2 2 5 4 4 4 1 4 2 2 6 2 5 1 3 23 20 18 16 13 11 9 9 11 13 12 11 11 11 11 11 11 10 8 6 6 4 3 2 3 3 2 2 2 4 3 4 4 6
4 4 5 4 3 8 10 5 4 4 4 5 4 9 18 22 22 21 19 16 14 13 11 11 12 11 10 10 5 8 8 8 8 7 7 5 4 2 2 3 3 2 1 3 3 3 4 2 3
4 5 3 7 7 4 6 5 6 5 4 2 4 13 19 23 21 20 18 18 16 15 11 10 11 12 11 9 6 5 5 6 7 6 8 6 5 4 3 3 3 2 3 4 3 1 1 1 2
3 6 3 5 3 5 6 4 2 2 9 14 9 21 22 24 21 20 18 17 17 14 14 12 12 10 8 6 5 6 6 6 7 7 8 7 7 6 6 5 4 4 4 5 5 3 1 3 2
4 2 3 7 6 4 4 6 5 11 13 9 12 19 22 21 20 17 17 16 14 15 13 11 10 9 8 6 5 5 6 7 7 7 9 9 9 8 7 6 5 4 4 6 5 5 4 4 5
3 1 1 8 8 4 6 8 3 9 7 7 8 11 15 18 19 16 16 16 14 13 13 10 9 8 8 6 4 3 4 5 6 7 9 12 11 10 9 8 7 6 6 6 6 6 5 6 6
1 3 3 12 11 6 2 7 13 9 4 6 6 8 11 14 16 18 17 15 14 11 11 9 7 6 7 6 4 4 5 6 7 8 9 12 14 13 11 9 8 8 8 8 7 7 6 6 6
2 3 2 5 12 5 6 4 15 14 8 4 6 8 10 13 16 14 12 11 11 10 10 9 6 7 6 5 5 5 4 6 8 9 10 12 14 15 13 11 10 10 9 8 7 6 5 5 5
6 2 3 5 5 2 10 4 14 15 14 6 6 9 12 13 14 13 11 11 10 11 11 10 9 8 7 6 3 2 3 6 6 7 8 10 12 14 15 13 12 11 10 9 7 6 7 6 5
1 1 1 4 6 8 6 8 10 14 14 13 5 9 11 13 16 13 10 9 9 9 9 10 8 8 5 3 1 3 5 6 6 7 7 9 10 11 13 13 13 11 8 7 7 9 7 7 6
4 2 3 4 3 2 5 9 13 15 22 17 6 7 10 11 7 8 8 8 9 10 11 10 9 6 4 3 3 4 5 4 5 8 10 9 8 8 10 11 11 11 9 10 10 10 11 9 7
5 3 4 7 3 1 3 12 8 15 18 14 10 3 5 6 7 8 9 9 8 7 10 9 7 5 3 2 2 3 3 4 6 9 11 11 12 13 12 13 9 11 8 9 10 11 9 9 8
1 4 6 7 8 4 2 2 14 11 17 16 13 6 7 6 8 7 7 5 5 7 7 6 4 2 1 2 3 4 4 5 6 7 7 10 12 13 14 16 14 11 9 10 11 11 14 10 9
3 8 9 10 2 1 7 2 11 14 15 18 15 11 6 6 7 7 7 6 5 5 3 2 2 2 3 3 5 7 8 10 9 9 8 10 15 17 18 18 17 13 10 12 11 10 11 11 11
4 15 5 4 2 3 8 2 6 11 13 16 13 11 8 7 7 8 7 8 6 5 3 1 2 4 5 6 6 7 11 10 9 10 12 13 13 18 18 17 17 13 11 13 14 13 12 10 11
14 5 1 2 1 2 4 2 5 8 11 11 8 8 8 7 9 9 9 6 6 3 3 3 5 7 8 8 10 11 14 14 12 13 12 12 11 10 14 17 15 15 13 14 13 14 16 13 12
14 5 2 1 2 2 4 2 3 8 7 6 7 7 6 8 8 7 7 5 4 4 4 6 8 10 11 11 12 13 14 15 17 16 12 15 12 11 13 13 13 11 12 13 12 12 14 14 13
5 5 2 1 2 3 3 2 3 5 5 4 4 5 7 8 6 6 5 5 5 6 7 8 9 12 13 13 14 13 14 11 12 14 13 12 11 12 14 13 13 15 13 12 12 9 12 14 13
6 4 5 2 2 1 2 3 4 1 5 5 6 6 6 5 4 4 4 4 5 7 8 8 10 12 13 14 13 14 14 16 15 18 15 12 13 11 12 11 11 12 12 12 12 9 12 13 13
8 6 1 4 3 2 3 3 3 6 5 3 4 5 3 1 1 3 4 6 6 7 8 9 10 12 14 15 14 14 15 15 15 14 15 15 13 13 12 12 13 13 9 7 9 9 7 8 6
5 5 4 1 1 2 3 3 2 8 3 3 5 4 2 0 3 5 6 6 7 8 9 10 11 13 14 15 16 16 15 15 15 14 14 14 14 12 11 9 6 5 7 8 8 7 8 10 10
7 6 2 2 2 2 2 2 5 7 4 6 5 3 1 2 4 5 6 7 9 10 11 12 13 14 15 15 16 16 15 16 15 15 15 14 12 11 7 7 7 7 8 8 9 10 9 12 12
Wind_Direction
132 140 135 176 223 321 283 235 283 248 217 189 117 189 175 42 186 348 142 139 147 149 150 146 141 141 136 134 129 123 116 116 109 102 91 84 80 74 67 62 55 46 44 44 43 40 37 34 28
142 132 119 101 154 271 261 242 239 264 125 124 113 109 143 104 74 117 140 155 147 144 144 143 144 141 139 135 135 132 125 120 113 106 95 87 86 86 76 70 58 49 43 43 40 37 35 31 26
138 81 215 111 130 200 283 212 304 132 156 181 135 36 93 106 81 143 135 150 145 146 147 145 144 143 141 145 142 135 123 121 116 107 98 93 95 95 72 87 56 50 49 46 41 38 37 31 32
149 134 101 221 232 243 244 289 275 154 212 226 144 112 97 357 149 150 144 148 146 147 148 143 141 147 145 147 142 138 130 126 118 108 101 95 96 81 77 94 66 50 51 47 46 47 37 36 35
61 89 156 218 250 264 251 277 183 197 181 166 183 148 88 61 120 139 147 150 147 149 151 143 144 145 150 146 146 144 138 136 125 117 109 123 94 100 56 104 46 58 56 44 49 43 52 60 48
106 106 234 260 244 260 279 260 168 213 178 139 143 142 124 137 141 148 151 151 150 148 150 147 146 147 147 145 150 150 146 140 134 127 92 87 89 67 65 53 49 55 66 52 63 79 57 46 39
156 160 238 247 273 282 258 144 209 207 183 201 144 146 119 168 155 152 151 146 147 146 147 149 146 147 149 151 153 150 148 142 136 125 98 86 82 77 65 49 50 42 37 37 93 78 72 38 19
122 217 214 223 231 284 269 192 261 197 202 100 160 184 174 180 159 150 146 143 143 145 142 140 148 150 151 153 156 154 152 152 149 142 121 105 87 70 73 74 63 33 10 47 86 79 60 20 7
149 217 256 251 219 275 211 261 92 55 123 126 151 110 121 147 150 147 146 147 146 145 145 151 148 146 147 153 158 160 162 164 165 164 149 131 118 91 94 70 55 29 7 109 105 69 37 30 21
178 202 234 239 239 289 302 264 260 191 146 191 154 85 132 147 157 158 160 158 162 162 169 166 156 153 153 161 157 163 180 185 184 182 171 168 158 137 110 108 95 65 26 124 111 76 70 28 7
166 238 220 275 273 277 289 290 171 178 209 30 268 151 155 157 163 164 164 164 170 175 171 172 165 164 170 172 174 180 185 190 194 190 187 187 185 181 185 165 165 157 168 191 178 181 348 17 335
228 245 248 299 333 326 303 347 101 52 336 307 278 162 159 166 166 167 165 166 176 177 177 177 177 172 174 174 193 208 207 208 213 212 204 203 208 208 206 202 183 190 200 202 209 220 244 254 269
216 274 341 324 339 22 324 42 99 16 355 24 123 152 161 165 167 169 169 175 171 179 182 181 177 180 178 183 197 201 207 214 221 214 217 219 224 223 218 213 206 207 201 214 224 238 250 260 258
202 351 302 359 2 33 51 47 59 7 359 62 119 149 161 164 167 164 177 173 182 182 184 178 184 184 184 186 188 220 226 223 221 234 236 228 235 235 229 223 215 212 209 214 230 233 245 256 252
332 139 24 21 354 26 258 48 19 341 30 79 110 139 155 168 168 181 178 179 183 187 176 176 165 156 172 171 191 224 239 233 242 248 248 243 237 239 237 233 225 222 213 219 230 231 241 251 241
46 74 352 24 7 7 326 55 16 10 356 54 127 148 157 169 184 187 177 180 184 180 174 160 162 161 172 189 202 219 235 242 247 251 256 253 245 240 239 239 234 228 220 222 227 231 239 248 249
20 56 17 342 34 334 25 42 19 14 22 20 165 167 167 168 193 192 181 180 177 174 165 162 168 175 183 196 213 246 250 246 251 257 262 263 253 243 238 240 240 228 227 227 230 231 236 245 249
29 63 331 341 6 37 72 67 27 23 27 22 194 179 176 183 197 183 176 167 173 168 164 165 166 173 181 186 189 246 250 251 258 262 269 275 264 250 238 242 245 242 239 238 234 240 232 244 252
100 90 359 304 33 81 80 55 32 20 23 14 28 189 187 192 179 173 156 147 146 171 173 171 172 173 174 194 227 243 256 277 274 263 267 270 263 257 240 245 245 236 233 238 237 239 240 235 235
59 63 360 294 333 315 132 49 28 29 26 12 9 157 177 158 149 142 151 168 181 172 176 173 179 178 193 223 248 269 290 285 282 275 267 261 259 255 250 249 251 243 243 243 240 232 236 242 224
4 29 330 303 332 71 169 89 17 25 27 33 38 59 98 132 146 135 136 130 173 173 172 172 174 161 252 286 278 280 278 275 275 272 273 269 257 255 251 253 248 245 246 251 248 234 226 237 222
311 5 316 304 270 178 2 347 30 360 26 35 30 36 55 115 110 112 117 126 143 122 115 96 57 311 296 297 298 296 289 283 284 283 281 279 268 261 261 255 251 250 250 244 241 231 229 227 234
322 317 288 287 191 166 17 80 4 15 7 15 29 35 49 71 93 106 104 111 98 90 86 37 330 306 307 302 293 286 278 281 282 279 277 276 273 264 259 255 252 248 246 243 237 235 227 227 232
327 329 58 83 126 95 355 351 30 14 341 353 19 30 40 60 93 105 95 97 85 75 44 347 326 318 312 301 291 280 283 284 284 282 285 284 279 274 263 256 251 249 246 241 237 233 229 222 222
1 343 2 122 42 70 354 47 31 1 5 349 3 31 62 90 87 85 79 67 50 30 360 343 335 315 310 305 300 293 290 288 286 285 282 282 280 274 268 263 262 252 243 236 229 233 233 218 211
330 17 39 302 349 6 31 66 38 22 42 24 44 70 92 87 84 71 58 38 11 356 350 337 323 313 315 314 306 302 298 295 292 287 286 280 278 276 272 265 260 258 249 235 224 232 237 228 215
355 24 339 294 40 254 345 110 323 89 42 39 71 100 96 82 69 46 25 359 346 343 333 324 322 316 317 319 316 310 308 303 300 301 297 294 290 287 282 273 262 250 243 233 233 235 227 222 209
47 350 8 26 22 20 27 40 57 20 17 74 113 131 117 89 27 2 347 341 339 328 325 326 322 323 322 322 322 316 314 314 314 311 308 306 304 300 292 290 275 253 227 226 233 225 193 192 194
360 24 19 85 4 330 338 69 271 303 304 154 165 168 168 294 330 334 333 333 327 330 332 328 333 332 326 326 323 320 320 321 323 322 321 316 312 302 309 294 269 254 236 228 230 208 204 208 214
64 46 60 360 359 293 308 78 336 8 41 142 154 179 198 296 323 329 326 332 339 334 337 339 333 335 333 329 323 325 327 330 330 333 332 325 312 309 293 290 278 257 245 237 225 218 209 203 201